Location: Brachbach
(49.1847°N, 9.7240°E)
Time: 18:14:29
(UTC+00:00)

FENGYUN 1C DEB - Visible Passes

Search period start: 07 October 2024 00:00
Search period end: 17 October 2024 00:00
Orbit: 799 x 903 km, 99.1° (Epoch: 06 October)

Date Brightness Start Highest point End Pass type
(mag) Time Alt. Az. Time Alt. Az. Time Alt. Az.
07 Oct ? 17:16:05 10° ESE 17:20:26 26° ENE 17:24:52 10° N visible
07 Oct ? 18:55:26 10° S 19:00:42 60° WSW 19:06:09 10° NNW visible
08 Oct ? 18:43:34 10° S 18:48:55 74° WSW 18:54:26 10° NNW visible
08 Oct ? 20:28:44 10° WSW 20:30:36 12° W 20:32:29 10° WNW visible
09 Oct ? 18:31:46 10° SSE 18:37:08 90° ESE 18:42:43 10° NNW visible
09 Oct ? 20:15:37 10° WSW 20:18:38 15° W 20:21:42 10° NW visible
10 Oct ? 18:20:03 10° SSE 18:25:24 74° ENE 18:30:57 10° NNW visible
10 Oct ? 20:02:57 10° SW 20:06:41 19° W 20:10:31 10° NW visible
11 Oct ? 18:08:23 10° SSE 18:13:40 60° ENE 18:19:09 10° N visible
11 Oct ? 19:50:31 10° SW 19:54:47 23° W 19:59:08 10° NW visible
12 Oct ? 17:56:46 10° SE 18:01:58 49° ENE 18:07:19 10° N visible
12 Oct ? 19:38:14 10° SSW 19:42:52 29° W 19:47:39 10° NW visible
13 Oct ? 17:45:14 10° SE 17:50:16 41° ENE 17:55:28 10° N visible
13 Oct ? 19:26:27 12° SSW 19:31:00 36° W 19:36:06 10° NNW visible
14 Oct ? 17:33:46 10° SE 17:38:36 34° ENE 17:43:35 10° N visible
14 Oct ? 19:14:44 14° SSW 19:19:08 44° W 19:24:29 10° NNW visible
15 Oct ? 17:22:21 10° ESE 17:26:57 28° ENE 17:31:39 10° N visible
15 Oct ? 19:02:59 16° S 19:07:18 55° W 19:12:49 10° NNW visible
16 Oct ? 17:11:02 10° ESE 17:15:19 24° ENE 17:19:41 10° N visible
16 Oct ? 18:51:15 17° S 18:55:28 68° WSW 19:01:06 10° NNW visible
16 Oct ? 20:35:58 10° W 20:37:14 11° W 20:38:31 10° WNW visible
